CW8822 Caguas PR US current weather conditions

sailwx.info

Wind from 142

Air temperature 23.9° C
Dewpoint 23.2° C

Last reported at 2015-Sep-03 09:28 UTC.
Time now 2015-Sep-03 10:54 UTC

Location: N 18°12' W 066°01'.
View on Google Maps.

See reports from other nearby stations

  
Tides and Currents Weather Stations Pressure Air Temp Water Temp Dewpoint Dewpoint Depression Visibility Wind Speed Wind Dir Waves Ship Positions
date/time (UTC)wind fromknots sea level pressurealtimeterstation pressurevisibilityair tempwater tempwave heightnotes
2015-Sep-03 09:28 142 23.9
2015-Sep-03 09:13 142 23.9
2015-Sep-03 08:58 142 23.9
2015-Sep-03 08:43 142 23.9
2015-Sep-03 08:28 142 23.9
2015-Sep-03 07:28 142 24.4
2015-Sep-03 06:57 142 23.9
2015-Sep-03 06:42
2015-Sep-03 06:12 143 1 gusting 3 24.4
2015-Sep-03 05:57 143 25.0
2015-Sep-03 05:12 143 25.0
2015-Sep-03 04:57 143 0 gusting 3 25.0
2015-Sep-03 04:27 142 25.0
2015-Sep-03 04:12 142 25.0
2015-Sep-03 03:57 142 25.0
2015-Sep-03 03:41 142 25.0
2015-Sep-03 03:26 142 25.6
2015-Sep-03 03:11 142 1 gusting 4 25.6
2015-Sep-03 02:56 142 0 gusting 2 25.6
2015-Sep-03 02:42 142 25.6
2015-Sep-03 02:26 142 25.6
2015-Sep-03 02:11 142 25.6
2015-Sep-03 01:56 140 25.6
2015-Sep-03 01:26 147 0 gusting 5 25.6
2015-Sep-03 01:11 134 1 gusting 4 25.6
2015-Sep-03 00:56 128 0 gusting 3 25.6
2015-Sep-03 00:11 144 1 gusting 6 26.1
2015-Sep-02 23:11 146 26.7
2015-Sep-02 22:56 136 1 gusting 6 26.7
2015-Sep-02 22:26 119 0 gusting 6 27.2
2015-Sep-02 22:11 110 27.8
2015-Sep-02 21:56 109 27.8
2015-Sep-02 21:41 122 0 gusting 4 27.8
2015-Sep-02 21:26 114 0 gusting 3 28.3
2015-Sep-02 21:11 100 0 gusting 5 28.9
2015-Sep-02 20:41 090 0 gusting 6 28.9
2015-Sep-02 19:56 084 0 gusting 6 28.9
2015-Sep-02 19:25 092 1 gusting 6 29.4
2015-Sep-02 19:10 106 0 gusting 4 29.4
2015-Sep-02 18:55 133 3 gusting 3
2015-Sep-02 17:57 116 2 gusting 11 30.6
2015-Sep-02 17:42 144 0 gusting 7 31.1
2015-Sep-02 17:27 209 2 gusting 8 30.6
2015-Sep-02 17:12 113 2 gusting 11 30.6
2015-Sep-02 16:42 180 30.6
2015-Sep-02 16:12 138 2 gusting 6 30.6
2015-Sep-02 15:57 074 0 gusting 6 30.6
2015-Sep-02 15:42 096 31.1
2015-Sep-02 15:27 062 0 gusting 7 30.0
2015-Sep-02 14:42 055 1 gusting 5 28.9
2015-Sep-02 14:27 091 28.9
2015-Sep-02 12:57 079 27.2
2015-Sep-02 12:41 144 27.2
2015-Sep-02 12:26 146 26.1
2015-Sep-02 12:11 146 2 gusting 3 26.1
2015-Sep-02 11:56 150 25.6
2015-Sep-02 11:11 238 24.4
2015-Sep-02 10:56 238 23.9
2015-Sep-02 10:41 238 24.4
2015-Sep-02 09:41 119 24.4
2015-Sep-02 09:26 119 24.4
2015-Sep-02 08:56 119 0 gusting 3 23.9
2015-Sep-02 08:41 119 1 gusting 4 23.9
2015-Sep-02 08:26 098 0 gusting 2 23.3
2015-Sep-02 08:11 098 23.3
2015-Sep-02 07:41 098 23.9
2015-Sep-02 07:26 098 23.9
2015-Sep-02 06:56 098 23.3
2015-Sep-02 06:41 098 0 gusting 4 23.9
2015-Sep-02 06:26 098 23.9
2015-Sep-02 05:25 098 23.9
2015-Sep-02 05:10
2015-Sep-02 04:15 048 1 gusting 5 23.3
2015-Sep-02 04:00 180 25.0
2015-Sep-02 03:45 135 1 gusting 6 25.0
2015-Sep-02 03:30 161 4 gusting 7 25.0
2015-Sep-02 03:15 138 0 gusting 6 24.4
2015-Sep-02 03:00 142 23.3
2015-Sep-02 02:45 078 0 gusting 1 23.3
2015-Sep-02 02:00 079 0 gusting 5 23.9
2015-Sep-02 01:45 118 1 gusting 5 23.3
2015-Sep-02 01:30 094 0 gusting 5 23.9
2015-Sep-02 01:15
2015-Sep-02 00:59
2015-Sep-02 00:46 198 2 gusting 9 23.9
2015-Sep-02 00:30 168 1 gusting 6 23.9
2015-Sep-01 23:19 091 2 gusting 6 25.0
2015-Sep-01 23:04 142 0 gusting 6 25.6
2015-Sep-01 22:34 099 0 gusting 6 26.7
2015-Sep-01 22:04 057 1 gusting 4 27.2
2015-Sep-01 21:49 057 27.8
2015-Sep-01 21:34 044 27.8
2015-Sep-01 21:19 044 27.8
2015-Sep-01 21:04 088 28.3
2015-Sep-01 20:49 082 0 gusting 3 28.3
2015-Sep-01 20:34 154 27.8
2015-Sep-01 20:04 080 0 gusting 6 27.8
2015-Sep-01 19:34 094 28.3
2015-Sep-01 19:19 108 28.3
2015-Sep-01 19:04 107 28.3
2015-Sep-01 18:49 063 0 gusting 3 28.9
2015-Sep-01 18:34 105 0 gusting 6 28.9
2015-Sep-01 18:19 100 1 gusting 6 28.9
2015-Sep-01 18:04 109 0 gusting 6 27.8
2015-Sep-01 17:49 076 0 gusting 4 27.2
2015-Sep-01 17:34 082 27.2
2015-Sep-01 17:19 101 0 gusting 4 27.2
2015-Sep-01 17:04 051 0 gusting 5 27.2
2015-Sep-01 16:49 055 0 gusting 6 27.8
2015-Sep-01 16:33 070 3 gusting 6 27.8
2015-Sep-01 16:18 078 0 gusting 6 28.9
2015-Sep-01 16:03 105 0 gusting 4 29.4
2015-Sep-01 15:48 011 0 gusting 6 29.4
2015-Sep-01 15:33 073 2 gusting 7 30.6
2015-Sep-01 15:18 121 1 gusting 6 30.6
2015-Sep-01 15:03 076 2 gusting 6 30.6
2015-Sep-01 14:48 101 0 gusting 6 30.6
2015-Sep-01 14:33 073 1 gusting 7 30.0
2015-Sep-01 14:18 098 1 gusting 6 30.0
2015-Sep-01 14:03 057 0 gusting 4 29.4
2015-Sep-01 13:48 022 2 gusting 7 29.4
2015-Sep-01 13:33 058 30.0
2015-Sep-01 13:18 095 1 gusting 7 28.9
2015-Sep-01 13:03 049 0 gusting 6 28.3
2015-Sep-01 12:48 046 1 gusting 7 27.8
2015-Sep-01 12:33 041 1 gusting 4 27.8
2015-Sep-01 12:18 138 26.7
2015-Sep-01 12:03 138 26.1
2015-Sep-01 11:48 138 26.1
2015-Sep-01 11:32 138 25.6
2015-Sep-01 11:17 138 25.0
2015-Sep-01 11:02 138 24.4
2015-Sep-01 10:47 138 24.4
2015-Sep-01 10:32 138 24.4
2015-Sep-01 10:17 138 23.9